This demonstration page uses our WeatherBlox Daily Observations layout. Learn more.

40.92945, -100.16068

Hourly Observations for October 23, 2019

Temp ( °F °C ) Dew Point ( °F °C ) Humidity (%) Winds ( mph kmh ) Pressure ( in mb ) Visibility ( mi km ) Precip ( " mm )
12:15 am 00:15 Mostly Cloudy 51 10.3 46 7.5 83 83 SSW 8 13 29.83 1010 10 16.0934 0 0
12:35 am 00:35 Partly Cloudy 50 9.9 44 6.6 80 80 SSW 13 20 29.83 1010 10 16.0934 0 0
12:55 am 00:55 Mostly Cloudy 50 10 43 6 76 76 SSW 8 13 29.8 1009 10 16.0934 0 0
1:15 am 01:15 Cloudy 50 10.2 42 5.6 73 73 SSW 9 15 29.8 1009 10 16.0934 0 0
1:35 am 01:35 Cloudy 50 10 42 5.3 73 73 S 10 17 29.8 1009 10 16.0934 0 0
1:55 am 01:55 Mostly Cloudy 49 9.6 40 4.3 70 70 SSW 8 13 29.8 1009 10 16.0934 0 0
2:15 am 02:15 Mostly Cloudy 49 9.2 38 3.5 68 68 S 7 11 29.8 1009 10 16.0934 0 0
2:35 am 02:35 Cloudy 49 9.5 37 2.7 63 63 SSW 9 15 29.8 1009 10 16.0934 0 0
2:55 am 02:55 Cloudy with Light Rain 50 9.9 36 2.4 60 60 SSW 10 17 29.8 1009 10 16.0934 0 0
3:15 am 03:15 Mostly Cloudy 51 10.5 35 1.9 56 56 SSW 9 15 29.77 1008 10 16.0934 0 0
3:35 am 03:35 Partly Cloudy 47 8.6 36 2 64 64 S 7 11 29.77 1008 10 16.0934 0 0
3:55 am 03:55 Partly Cloudy 46 7.5 35 1.9 68 68 Calm 29.8 1009 10 16.0934 0 0
4:15 am 04:15 Clear 48 8.8 36 2.3 64 64 SW 9 15 29.77 1008 10 16.0934 0 0
4:35 am 04:35 Clear 49 9.6 37 2.5 62 62 SW 10 17 29.77 1008 10 16.0934 0 0
4:55 am 04:55 Clear 50 10 36 2.4 60 60 WSW 13 20 29.77 1008 10 16.0934 0 0
5:15 am 05:15 Clear 50 10.1 37 3 62 62 W 16 26 29.77 1008 10 16.0934 0 0
5:35 am 05:35 Clear 48 8.7 38 3.5 70 70 W 13 20 29.77 1008 10 16.0934 0 0
5:55 am 05:55 Clear 46 8 39 3.8 75 75 WNW 12 19 29.8 1009 10 16.0934 0 0
6:15 am 06:15 Clear 48 8.7 40 4.2 74 74 WNW 15 24 29.8 1009 10 16.0934 0 0
6:35 am 06:35 Clear 47 8.6 40 4.5 76 76 NW 16 26 29.83 1010 10 16.0934 0 0
6:55 am 06:55 Clear 47 8.1 40 4.7 79 79 WNW 15 24 29.88 1012 10 16.0934 0 0
7:15 am 07:15 Clear 46 7.8 41 4.9 82 82 WNW 12 19 29.88 1012 10 16.0934 0 0
7:35 am 07:35 Partly Cloudy 46 7.5 41 4.8 83 83 NW 13 20 29.88 1012 10 16.0934 0 0
7:55 am 07:55 Partly Cloudy 45 7.3 41 4.8 84 84 NW 14 22 29.91 1013 10 16.0934 0 0
8:15 am 08:15 Mostly Cloudy 45 7.4 41 4.8 84 84 WNW 9 15 29.91 1013 10 16.0934 0 0
8:35 am 08:35 Mostly Cloudy 46 7.5 41 4.8 83 83 WNW 10 17 29.91 1013 10 16.0934 0 0
8:55 am 08:55 Partly Cloudy 44 6.7 40 4.7 87 87 W 9 15 29.94 1014 10 16.0934 0 0
9:15 am 09:15 Sunny 46 7.6 41 5 84 84 WNW 13 20 29.94 1014 10 16.0934 0 0
9:35 am 09:35 Sunny 47 8.5 41 5 79 79 WNW 16 26 29.97 1015 10 16.0934 0 0
9:55 am 09:55 Sunny 48 9.1 41 4.8 75 75 WNW 14 22 29.97 1015 10 16.0934 0 0
10:15 am 10:15 Sunny 49 9.7 40 4.5 70 70 NW 17 28 29.94 1014 10 16.0934 0 0
10:35 am 10:35 Sunny 51 10.3 40 4.5 68 68 NW 17 28 29.94 1014 10 16.0934 0 0
10:55 am 10:55 Sunny 52 11 40 4.2 63 63 NW 18 30 29.97 1015 10 16.0934 0 0
11:15 am 11:15 Sunny 53 11.7 39 3.9 59 59 NW 20 31 29.97 1015 10 16.0934 0 0
11:35 am 11:35 Sunny 54 12.1 38 3.4 56 56 NW 17 28 29.97 1015 10 16.0934 0 0
11:55 am 11:55 Sunny 55 12.5 38 3.4 54 54 NW 17 28 29.97 1015 10 16.0934 0 0
12:15 pm 12:15 Sunny 55 12.8 38 3.2 52 52 WNW 17 28 29.97 1015 10 16.0934 0 0
12:35 pm 12:35 Sunny 56 13.2 37 2.6 49 49 NW 14 22 29.94 1014 10 16.0934 0 0
12:55 pm 12:55 Sunny 57 14 36 2.3 45 45 NW 15 24 29.94 1014 10 16.0934 0 0
1:15 pm 13:15 Partly Cloudy 59 14.8 36 2.4 43 43 NW 17 28 29.91 1013 10 16.0934 0 0
1:35 pm 13:35 Partly Cloudy 59 14.8 33 0.6 38 38 NW 21 33 29.91 1013 10 16.0934 0 0
1:55 pm 13:55 Partly Cloudy 60 15.3 32 0.1 36 36 NW 17 28 29.91 1013 10 16.0934 0 0
2:15 pm 14:15 Partly Cloudy 59 15 33 0.4 37 37 WNW 20 31 29.91 1013 10 16.0934 0 0
2:35 pm 14:35 Partly Cloudy 60 15.5 33 0.4 36 36 NW 22 35 29.91 1013 10 16.0934 0 0
2:55 pm 14:55 Sunny 60 15.4 31 -0.8 33 33 NW 26 43 29.91 1013 10 16.0934 0 0
3:15 pm 15:15 Partly Cloudy 60 15.4 30 -1.2 32 32 NW 24 39 29.91 1013 10 16.0934 0 0
3:35 pm 15:35 Partly Cloudy 60 15.8 30 -1.2 31 31 WNW 29 46 29.94 1014 10 16.0934 0 0
3:55 pm 15:55 Partly Cloudy 60 15.6 29 -1.4 31 31 NW 25 41 29.94 1014 10 16.0934 0 0
4:15 pm 16:15 Partly Cloudy 59 15.2 29 -1.7 31 31 NW 24 39 29.94 1014 10 16.0934 0 0
4:35 pm 16:35 Partly Cloudy 58 14.7 30 -1.1 34 34 NW 24 39 29.97 1015 10 16.0934 0 0
4:55 pm 16:55 Partly Cloudy 59 14.8 30 -1.2 34 34 NNW 21 33 29.97 1015 10 16.0934 0 0
5:15 pm 17:15 Cloudy 55 12.6 35 1.6 47 47 N 18 30 30.03 1017 10 16.0934 0 0
5:35 pm 17:35 Mostly Cloudy 53 11.6 36 2.1 52 52 N 28 44 30.03 1017 10 16.0934 0 0
5:55 pm 17:55 Partly Cloudy 51 10.6 35 1.5 54 54 NNW 23 37 30.03 1017 10 16.0934 0 0
6:15 pm 18:15 Sunny 49 9.3 35 1.4 58 58 NNW 23 37 30.09 1019 10 16.0934 0 0
6:35 pm 18:35 Sunny 47 8.2 34 1 61 61 NNW 31 50 30.12 1020 10 16.0934 0 0
6:55 pm 18:55 Mostly Cloudy 42 5.6 35 1.4 75 75 N 28 44 30.18 1022 10 16.0934 0 0
7:15 pm 19:15 Cloudy 40 4.5 32 0 73 73 N 28 44 30.21 1023 10 16.0934 0 0
7:35 pm 19:35 Cloudy 38 3.6 31 -0.3 76 76 N 22 35 30.24 1024 10 16.0934 0 0
7:55 pm 19:55 Mostly Cloudy 36 2.3 30 -0.9 80 80 N 23 37 30.24 1024 10 16.0934 0 0
8:15 pm 20:15 Partly Cloudy 36 2.1 29 -1.6 77 77 N 26 43 30.3 1026 10 16.0934 0 0
8:35 pm 20:35 Mostly Cloudy 35 1.8 28 -2 76 76 N 17 28 30.33 1027 10 16.0934 0 0
8:55 pm 20:55 Cloudy 35 1.7 28 -2.1 76 76 N 18 30 30.36 1028 10 16.0934 0 0
9:15 pm 21:15 Mostly Cloudy 35 1.5 28 -2.1 77 77 N 13 20 30.36 1028 10 16.0934 0 0
9:35 pm 21:35 Partly Cloudy 34 1.2 28 -2.2 78 78 N 9 15 30.36 1028 10 16.0934 0 0
9:55 pm 21:55 Clear 34 1.1 28 -2.3 78 78 N 13 20 30.36 1028 10 16.0934 0 0
10:15 pm 22:15 Partly Cloudy 34 1.1 28 -2.3 78 78 NNW 9 15 30.42 1030 10 16.0934 0 0
10:35 pm 22:35 Cloudy 34 1.3 28 -2.5 76 76 NNW 9 15 30.42 1030 10 16.0934 0 0
10:55 pm 22:55 Cloudy 35 1.5 28 -2.3 76 76 N 10 17 30.42 1030 10 16.0934 0 0
11:15 pm 23:15 Cloudy 35 1.6 28 -2.1 77 77 N 8 13 30.42 1030 10 16.0934 0 0
11:35 pm 23:35 Cloudy 36 2.1 28 -2.3 73 73 N 14 22 30.42 1030 10 16.0934 0 0
11:55 pm 23:55 Cloudy 36 2.2 28 -2.4 72 72 N 12 19 30.42 1030 10 16.0934 0 0

Powered by AerisWeather